Weather in Pasadena

United States     34°09′09″N   118°07′53″W
temp.,
°C
wind,
m/s
gust,
m/s
humid.,
%
clouds,
%
prec.,
mm/h
press.,
hPa
HPBL,
m
7 may, fri
fri723:00+14ese22721 0.0 1017157
02:00+12se12775 0.0 1015151
05:00+11ese12775 0.0 1015131
08:00+14ssw21657 0.0 1016330
11:00+19ssw42460 0.0 1015687
14:00+22ssw43350 0.0 10131006
17:00+21ssw32410 0.0 1012824
20:00+15sse22670 0.0 1013199
8 may, sat
sat823:00+13se22740 0.0 1013178
02:00+12ne11690 0.0 1013125
05:00+12ne11611 0.0 1013103
08:00+16wsw11471 0.0 1013362
11:00+22sw33320 0.0 1013848
14:00+25ssw44280 0.0 10111185
17:00+22ssw32390 0.0 1011776
20:00+16s11620 0.0 1012189
9 may, sun
sun923:00+14se11660 0.0 1012139
02:00+13sse11620 0.0 1012127
05:00+11s00721 0.0 1012130
08:00+14ssw21643 0.0 1012309
11:00+20sw32430 0.0 1012821
14:00+22ssw43390 0.0 10101074
17:00+21ssw42420 0.0 1009947
20:00+14s33690 0.0 1010296
10 may, mon
mon1023:00+12sse238442 0.0 1011306
02:00+11sse228550 0.0 1010348
05:00+11sse118342 0.0 1011327
08:00+14ssw21686 0.0 1011459
11:00+20sw43430 0.0 1010977
14:00+22ssw43380 0.0 10101075
17:00+20ssw42460 0.0 1010873
20:00+14sse21710 0.0 1011230
11 may, tue
tue1123:00+13se22760 0.0 1013190
02:00+12ese11750 0.0 1012145
05:00+12nne01670 0.0 1013114
08:00+17sw11440 0.0 1013308
11:00+23ssw23290 0.0 1013824
14:00+26sw43250 0.0 10121139
17:00+24ssw32300 0.0 1012668
20:00+17sse11540 0.0 1014168